Year,Month,Day,Hour,Minute,Value (Times are PST for temperature in C)
2013,08,18,08,46,16.80
2013,08,18,08,47,16.80
2013,08,18,08,48,16.90
2013,08,18,08,49,16.90
2013,08,18,08,50,17.00
2013,08,18,08,51,17.00
2013,08,18,08,52,17.10
2013,08,18,08,53,17.20
2013,08,18,08,54,17.20
2013,08,18,08,55,17.30
2013,08,18,08,56,17.30
2013,08,18,08,57,17.40
2013,08,18,08,58,17.50
2013,08,18,08,59,17.50
2013,08,18,09,00,17.60
2013,08,18,09,01,17.70
2013,08,18,09,02,17.80
2013,08,18,09,03,17.90
2013,08,18,09,04,17.90
2013,08,18,09,05,17.90
2013,08,18,09,06,17.90
2013,08,18,09,07,17.90
2013,08,18,09,08,17.90
2013,08,18,09,09,17.90
2013,08,18,09,10,18.00
2013,08,18,09,11,18.10
2013,08,18,09,12,18.10
2013,08,18,09,13,18.10
2013,08,18,09,14,18.00
2013,08,18,09,15,17.90
2013,08,18,09,16,18.00
2013,08,18,09,17,18.10
2013,08,18,09,18,18.10
2013,08,18,09,19,18.10
2013,08,18,09,20,17.90
2013,08,18,09,21,17.90
2013,08,18,09,22,17.90
2013,08,18,09,23,17.90
2013,08,18,09,24,17.90
2013,08,18,09,25,17.90
2013,08,18,09,26,17.90
2013,08,18,09,27,17.90
2013,08,18,09,28,17.90
2013,08,18,09,29,17.90
2013,08,18,09,30,17.90
2013,08,18,09,31,17.90
2013,08,18,09,32,17.90
2013,08,18,09,33,17.90
2013,08,18,09,34,17.90
2013,08,18,09,35,18.00
2013,08,18,09,36,18.10
2013,08,18,09,37,18.10
2013,08,18,09,38,18.10
2013,08,18,09,39,18.20
2013,08,18,09,40,18.20
2013,08,18,09,41,18.20
2013,08,18,09,42,18.20
2013,08,18,09,43,18.30
2013,08,18,09,44,18.40
2013,08,18,09,45,18.40
2013,08,18,09,46,18.40
2013,08,18,09,47,18.50
2013,08,18,09,48,18.60
2013,08,18,09,49,18.60
2013,08,18,09,50,18.70
2013,08,18,09,51,18.80
2013,08,18,09,52,18.80
2013,08,18,09,53,18.70
2013,08,18,09,54,18.70
2013,08,18,09,55,18.80
2013,08,18,09,56,18.80
2013,08,18,09,57,18.90
2013,08,18,09,58,18.90
2013,08,18,09,59,19.00
2013,08,18,10,00,19.10
2013,08,18,10,01,19.20
2013,08,18,10,02,19.20
2013,08,18,10,03,19.30
2013,08,18,10,04,19.30
2013,08,18,10,05,19.20
2013,08,18,10,06,19.10
2013,08,18,10,07,19.20
2013,08,18,10,08,19.20
2013,08,18,10,09,19.30
2013,08,18,10,10,19.30
2013,08,18,10,11,19.30
2013,08,18,10,12,19.20
2013,08,18,10,13,19.10
2013,08,18,10,14,19.10
2013,08,18,10,15,19.10
2013,08,18,10,16,19.10
2013,08,18,10,17,19.10
2013,08,18,10,18,19.20
2013,08,18,10,19,19.20
2013,08,18,10,20,19.20
2013,08,18,10,21,19.30
2013,08,18,10,22,19.30
2013,08,18,10,23,19.30
2013,08,18,10,24,19.30
2013,08,18,10,25,19.40
2013,08,18,10,26,19.40
2013,08,18,10,27,19.50
2013,08,18,10,28,19.60
2013,08,18,10,29,19.60
2013,08,18,10,30,19.50
2013,08,18,10,31,19.30
2013,08,18,10,32,19.10
2013,08,18,10,33,18.90
2013,08,18,10,34,18.90
2013,08,18,10,35,18.90
2013,08,18,10,36,18.90
2013,08,18,10,37,18.90
2013,08,18,10,38,18.80
2013,08,18,10,39,18.80
2013,08,18,10,40,18.80
2013,08,18,10,41,18.90
2013,08,18,10,42,18.90
2013,08,18,10,43,18.80
2013,08,18,10,44,18.70
2013,08,18,10,45,18.60
2013,08,18,10,46,18.40
2013,08,18,10,47,18.30
2013,08,18,10,48,18.20
2013,08,18,10,49,18.00
2013,08,18,10,50,17.80
2013,08,18,10,51,17.70
2013,08,18,10,52,17.50
2013,08,18,10,53,17.50
2013,08,18,10,54,17.40
2013,08,18,10,55,17.40
2013,08,18,10,56,17.30
2013,08,18,10,57,17.30
2013,08,18,10,58,17.30
2013,08,18,10,59,17.30
2013,08,18,11,00,17.30
2013,08,18,11,01,17.30
2013,08,18,11,02,17.30
2013,08,18,11,03,17.30
2013,08,18,11,04,17.30
2013,08,18,11,05,17.30
2013,08,18,11,06,17.40
2013,08,18,11,07,17.40
2013,08,18,11,08,17.40
2013,08,18,11,09,17.40
2013,08,18,11,10,17.40
2013,08,18,11,11,17.50
2013,08,18,11,12,17.50
2013,08,18,11,13,17.50
2013,08,18,11,14,17.50
2013,08,18,11,15,17.50
2013,08,18,11,16,17.50
2013,08,18,11,17,17.50
2013,08,18,11,18,17.60
2013,08,18,11,19,17.60
2013,08,18,11,20,17.60
2013,08,18,11,21,17.70
2013,08,18,11,22,17.80
2013,08,18,11,23,17.80
2013,08,18,11,24,17.80
2013,08,18,11,25,17.80
2013,08,18,11,26,17.80
2013,08,18,11,27,17.80
2013,08,18,11,28,17.90
2013,08,18,11,29,17.80
2013,08,18,11,30,17.80
2013,08,18,11,31,17.80
2013,08,18,11,32,17.70
2013,08,18,11,33,17.80
2013,08,18,11,34,17.70
2013,08,18,11,35,17.70
2013,08,18,11,36,17.80
2013,08,18,11,37,17.70
2013,08,18,11,38,17.70
2013,08,18,11,39,17.70
2013,08,18,11,40,17.70
2013,08,18,11,41,17.70
2013,08,18,11,42,17.70
2013,08,18,11,43,17.70
2013,08,18,11,44,17.50
2013,08,18,11,45,17.50
2013,08,18,11,46,17.40
2013,08,18,11,47,17.40
2013,08,18,11,48,17.30
2013,08,18,11,49,17.20
2013,08,18,11,50,17.20
2013,08,18,11,51,17.10
2013,08,18,11,52,17.10
2013,08,18,11,53,17.00
2013,08,18,11,54,17.00
2013,08,18,11,55,17.00
2013,08,18,11,56,17.00
2013,08,18,11,57,17.00
2013,08,18,11,58,17.10
2013,08,18,11,59,17.10
2013,08,18,12,00,17.00
2013,08,18,12,01,17.00
2013,08,18,12,02,16.90
2013,08,18,12,03,16.90
2013,08,18,12,04,16.80
2013,08,18,12,05,16.70
2013,08,18,12,06,16.70
2013,08,18,12,07,16.70
2013,08,18,12,08,16.70
2013,08,18,12,09,16.70
2013,08,18,12,10,16.80
2013,08,18,12,11,16.80
2013,08,18,12,12,16.90
2013,08,18,12,13,17.00
2013,08,18,12,14,17.20
2013,08,18,12,15,17.30
2013,08,18,12,16,17.40
2013,08,18,12,17,17.50
2013,08,18,12,18,17.50
2013,08,18,12,19,17.70
2013,08,18,12,20,17.80
2013,08,18,12,21,18.00
2013,08,18,12,22,18.10
2013,08,18,12,23,18.20
2013,08,18,12,24,18.30
2013,08,18,12,25,18.40
2013,08,18,12,26,18.50
2013,08,18,12,27,18.60
2013,08,18,12,28,18.60
2013,08,18,12,29,18.60
2013,08,18,12,30,18.70
2013,08,18,12,31,18.80
2013,08,18,12,32,18.80
2013,08,18,12,33,18.90
2013,08,18,12,34,18.90
2013,08,18,12,35,18.90
2013,08,18,12,36,19.00
2013,08,18,12,37,18.90
2013,08,18,12,38,19.10
2013,08,18,12,39,19.10
2013,08,18,12,40,19.10
2013,08,18,12,41,19.20
2013,08,18,12,42,19.20
2013,08,18,12,43,19.20
2013,08,18,12,44,19.20
2013,08,18,12,45,19.30
2013,08,18,12,46,19.30
2013,08,18,12,47,19.30
2013,08,18,12,48,19.30
2013,08,18,12,49,19.30
2013,08,18,12,50,19.40
2013,08,18,12,51,19.30
2013,08,18,12,52,19.30
2013,08,18,12,53,19.30
2013,08,18,12,54,19.30
2013,08,18,12,55,19.40
2013,08,18,12,56,19.40
2013,08,18,12,57,19.50
2013,08,18,12,58,19.60
2013,08,18,12,59,19.60
2013,08,18,13,00,19.70
2013,08,18,13,01,19.80
2013,08,18,13,02,19.80
2013,08,18,13,03,19.90
2013,08,18,13,04,19.90
2013,08,18,13,05,19.80
2013,08,18,13,06,19.80
2013,08,18,13,07,19.70
2013,08,18,13,08,19.70
2013,08,18,13,09,19.70
2013,08,18,13,10,19.70
2013,08,18,13,11,19.70
2013,08,18,13,12,19.70
2013,08,18,13,13,19.80
2013,08,18,13,14,19.80
2013,08,18,13,15,19.80
2013,08,18,13,16,19.90
2013,08,18,13,17,19.90
2013,08,18,13,18,19.90
2013,08,18,13,19,19.90
2013,08,18,13,20,20.00
2013,08,18,13,21,20.10
2013,08,18,13,22,20.00
2013,08,18,13,23,19.90
2013,08,18,13,24,19.90
2013,08,18,13,25,19.90
2013,08,18,13,26,19.90
2013,08,18,13,27,19.90
2013,08,18,13,28,20.10
2013,08,18,13,29,20.10
2013,08,18,13,30,20.10
2013,08,18,13,31,19.90
2013,08,18,13,32,20.00
2013,08,18,13,33,20.10
2013,08,18,13,34,20.10
2013,08,18,13,35,20.10
2013,08,18,13,36,20.10
2013,08,18,13,37,20.10
2013,08,18,13,38,20.10
2013,08,18,13,39,20.10
2013,08,18,13,40,20.10
2013,08,18,13,41,20.10
2013,08,18,13,42,20.20
2013,08,18,13,43,20.30
2013,08,18,13,44,20.40
2013,08,18,13,45,20.50
2013,08,18,13,46,20.50
2013,08,18,13,47,20.50
2013,08,18,13,48,20.50
2013,08,18,13,49,20.60
2013,08,18,13,50,20.60
2013,08,18,13,51,20.60
2013,08,18,13,52,20.60
2013,08,18,13,53,20.50
2013,08,18,13,54,20.40
2013,08,18,13,55,20.30
2013,08,18,13,56,20.30
2013,08,18,13,57,20.30
2013,08,18,13,58,20.40
2013,08,18,13,59,20.40
2013,08,18,14,00,20.40
2013,08,18,14,01,20.40
2013,08,18,14,02,20.50
2013,08,18,14,03,20.60
2013,08,18,14,04,20.60
2013,08,18,14,05,20.60
2013,08,18,14,06,20.60
2013,08,18,14,07,20.50
2013,08,18,14,08,20.50
2013,08,18,14,09,20.40
2013,08,18,14,10,20.30
2013,08,18,14,11,20.40
2013,08,18,14,12,20.40
2013,08,18,14,13,20.50
2013,08,18,14,14,20.50
2013,08,18,14,15,20.50
2013,08,18,14,16,20.40
2013,08,18,14,17,20.40
2013,08,18,14,18,20.40
2013,08,18,14,19,20.40
2013,08,18,14,20,20.40
2013,08,18,14,21,20.30
2013,08,18,14,22,20.30
2013,08,18,14,23,20.30
2013,08,18,14,24,20.40
2013,08,18,14,25,20.40
2013,08,18,14,26,20.40
2013,08,18,14,27,20.30
2013,08,18,14,28,20.30
2013,08,18,14,29,20.30
2013,08,18,14,30,20.20
2013,08,18,14,31,20.20
2013,08,18,14,32,20.20
2013,08,18,14,33,20.20
2013,08,18,14,34,20.10
2013,08,18,14,35,20.10
2013,08,18,14,36,20.10
2013,08,18,14,37,20.00
2013,08,18,14,38,19.90
2013,08,18,14,39,20.00
2013,08,18,14,40,20.10
2013,08,18,14,41,20.10
2013,08,18,14,42,20.20
2013,08,18,14,43,20.10
2013,08,18,14,44,20.10
2013,08,18,14,45,20.10
2013,08,18,14,46,20.10
2013,08,18,14,47,20.10
2013,08,18,14,48,20.20
2013,08,18,14,49,20.20
2013,08,18,14,50,20.20
2013,08,18,14,51,20.10
2013,08,18,14,52,20.10
2013,08,18,14,53,20.10
2013,08,18,14,54,20.10
2013,08,18,14,55,20.20
2013,08,18,14,56,20.20
2013,08,18,14,57,20.20
2013,08,18,14,58,20.20
2013,08,18,14,59,20.20
2013,08,18,15,00,20.30
2013,08,18,15,01,20.30
2013,08,18,15,02,20.40
2013,08,18,15,03,20.50
2013,08,18,15,04,20.50
2013,08,18,15,05,20.60
2013,08,18,15,06,20.60
2013,08,18,15,07,20.70
2013,08,18,15,08,20.80
2013,08,18,15,09,20.80
2013,08,18,15,10,20.80
2013,08,18,15,11,20.90
2013,08,18,15,12,20.90
2013,08,18,15,13,21.00
2013,08,18,15,14,21.00
2013,08,18,15,15,21.00
2013,08,18,15,16,21.00
2013,08,18,15,17,21.00
2013,08,18,15,18,21.00
2013,08,18,15,19,21.00
2013,08,18,15,20,21.00
2013,08,18,15,21,21.00
2013,08,18,15,22,21.00
2013,08,18,15,23,21.00
2013,08,18,15,24,21.00
2013,08,18,15,25,21.10
2013,08,18,15,26,21.10
2013,08,18,15,27,21.20
2013,08,18,15,28,21.20
2013,08,18,15,29,21.20
2013,08,18,15,30,21.30
2013,08,18,15,31,21.40
2013,08,18,15,32,21.40
2013,08,18,15,33,21.60
2013,08,18,15,34,21.60
2013,08,18,15,35,21.70
2013,08,18,15,36,21.70
2013,08,18,15,37,21.70
2013,08,18,15,38,21.80
2013,08,18,15,39,21.90
2013,08,18,15,40,22.00
2013,08,18,15,41,22.10
2013,08,18,15,42,22.20
2013,08,18,15,43,22.30
2013,08,18,15,44,22.40
2013,08,18,15,45,22.50
2013,08,18,15,46,22.60
2013,08,18,15,47,22.80
2013,08,18,15,48,22.80
2013,08,18,15,49,22.70
2013,08,18,15,50,22.70
2013,08,18,15,51,22.60
2013,08,18,15,52,22.50
2013,08,18,15,53,22.50
2013,08,18,15,54,22.50
2013,08,18,15,55,22.60
2013,08,18,15,56,22.60
2013,08,18,15,57,22.60
2013,08,18,15,58,22.60
2013,08,18,15,59,22.50
2013,08,18,16,00,22.50
2013,08,18,16,01,22.60
2013,08,18,16,02,22.60
2013,08,18,16,03,22.60
2013,08,18,16,04,22.60
2013,08,18,16,05,22.60
2013,08,18,16,06,22.70
2013,08,18,16,07,22.60
2013,08,18,16,08,22.60
2013,08,18,16,09,22.60
2013,08,18,16,10,22.60
2013,08,18,16,11,22.70
2013,08,18,16,12,22.80
2013,08,18,16,13,22.80
2013,08,18,16,14,22.90
2013,08,18,16,15,23.10
2013,08,18,16,16,23.30
2013,08,18,16,17,23.40
2013,08,18,16,18,23.40
2013,08,18,16,19,23.40
2013,08,18,16,20,23.50
2013,08,18,16,21,23.50
2013,08,18,16,22,23.40
2013,08,18,16,23,23.30
2013,08,18,16,24,23.30
2013,08,18,16,25,23.30
2013,08,18,16,26,23.30
2013,08,18,16,27,23.20
2013,08,18,16,28,23.10
2013,08,18,16,29,23.00
2013,08,18,16,30,22.90
2013,08,18,16,31,22.80
2013,08,18,16,32,22.80
2013,08,18,16,33,22.90
2013,08,18,16,34,22.90
2013,08,18,16,35,22.90
2013,08,18,16,36,22.80
2013,08,18,16,37,22.80
2013,08,18,16,38,22.80
2013,08,18,16,39,22.90
2013,08,18,16,40,22.90
2013,08,18,16,41,22.90
2013,08,18,16,42,22.90
2013,08,18,16,43,22.80
2013,08,18,16,44,22.80
2013,08,18,16,45,22.80
2013,08,18,16,46,22.80
2013,08,18,16,47,22.80
2013,08,18,16,48,22.70
2013,08,18,16,49,22.70
2013,08,18,16,50,22.70
2013,08,18,16,51,22.70
2013,08,18,16,52,22.70
2013,08,18,16,53,22.80
2013,08,18,16,54,22.80
2013,08,18,16,55,22.80
2013,08,18,16,56,22.90
2013,08,18,16,57,22.90
2013,08,18,16,58,22.80
2013,08,18,16,59,22.80
2013,08,18,17,00,22.80
2013,08,18,17,01,22.70
2013,08,18,17,02,22.70
2013,08,18,17,03,22.70
2013,08,18,17,04,22.80
2013,08,18,17,05,22.80
2013,08,18,17,06,22.90
2013,08,18,17,07,22.90
2013,08,18,17,08,22.90
2013,08,18,17,09,23.00
2013,08,18,17,10,23.10
2013,08,18,17,11,23.00
2013,08,18,17,12,22.90
2013,08,18,17,13,22.90
2013,08,18,17,14,22.90
2013,08,18,17,15,22.90
2013,08,18,17,16,22.90
2013,08,18,17,17,22.80
2013,08,18,17,18,22.90
2013,08,18,17,19,22.90
2013,08,18,17,20,22.90
2013,08,18,17,21,22.90
2013,08,18,17,22,22.90
2013,08,18,17,23,22.90
2013,08,18,17,24,22.90
2013,08,18,17,25,22.90
2013,08,18,17,26,22.90
2013,08,18,17,27,22.90
2013,08,18,17,28,23.00
2013,08,18,17,29,23.10
2013,08,18,17,30,23.10
2013,08,18,17,31,23.10
2013,08,18,17,32,23.00
2013,08,18,17,33,22.90
2013,08,18,17,34,22.90
2013,08,18,17,35,22.80
2013,08,18,17,36,22.80
2013,08,18,17,37,22.80
2013,08,18,17,38,22.80
2013,08,18,17,39,22.80
2013,08,18,17,40,22.80
2013,08,18,17,41,22.70
2013,08,18,17,42,22.70
2013,08,18,17,43,22.70
2013,08,18,17,44,22.80
2013,08,18,17,45,22.80
2013,08,18,17,46,22.70
2013,08,18,17,47,22.70
2013,08,18,17,48,22.60
2013,08,18,17,49,22.60
2013,08,18,17,50,22.70
2013,08,18,17,51,22.70
2013,08,18,17,52,22.70
2013,08,18,17,53,22.70
2013,08,18,17,54,22.70
2013,08,18,17,55,22.70
2013,08,18,17,56,22.60
2013,08,18,17,57,22.60
2013,08,18,17,58,22.60
2013,08,18,17,59,22.50
2013,08,18,18,00,22.50
2013,08,18,18,01,22.40
2013,08,18,18,02,22.40
2013,08,18,18,03,22.40
2013,08,18,18,04,22.40
2013,08,18,18,05,22.40
2013,08,18,18,06,22.30
2013,08,18,18,07,22.30
2013,08,18,18,08,22.30
2013,08,18,18,09,22.30
2013,08,18,18,10,22.30
2013,08,18,18,11,22.30
2013,08,18,18,12,22.30
2013,08,18,18,13,22.30
2013,08,18,18,14,22.40
2013,08,18,18,15,22.40
2013,08,18,18,16,22.40
2013,08,18,18,17,22.40
2013,08,18,18,18,22.40
2013,08,18,18,19,22.40
2013,08,18,18,20,22.40
2013,08,18,18,21,22.40
2013,08,18,18,22,22.40
2013,08,18,18,23,22.50
2013,08,18,18,24,22.60
2013,08,18,18,25,22.60
2013,08,18,18,26,22.70
2013,08,18,18,27,22.80
2013,08,18,18,28,22.70
2013,08,18,18,29,22.70
2013,08,18,18,30,22.70
2013,08,18,18,31,22.70
2013,08,18,18,32,22.70
2013,08,18,18,33,22.80
2013,08,18,18,34,22.70
2013,08,18,18,35,22.70
2013,08,18,18,36,22.60
2013,08,18,18,37,22.60
2013,08,18,18,38,22.60
2013,08,18,18,39,22.60
2013,08,18,18,40,22.60
2013,08,18,18,41,22.50
2013,08,18,18,42,22.50
2013,08,18,18,43,22.50
2013,08,18,18,44,22.40
2013,08,18,18,45,22.40
2013,08,18,18,46,22.40
2013,08,18,18,47,22.30
2013,08,18,18,48,22.30
2013,08,18,18,49,22.30
2013,08,18,18,50,22.30
2013,08,18,18,51,22.30
2013,08,18,18,52,22.20
2013,08,18,18,53,22.20
2013,08,18,18,54,22.20
2013,08,18,18,55,22.10
2013,08,18,18,56,22.10
2013,08,18,18,57,22.10
2013,08,18,18,58,22.10
2013,08,18,18,59,22.10
2013,08,18,19,00,22.10
2013,08,18,19,01,22.10
2013,08,18,19,02,22.10
2013,08,18,19,03,22.10
2013,08,18,19,04,22.10
2013,08,18,19,05,22.10
